COSMOS 2251 DEB, 34965

Orbit data source: Space-Track

COSMOS 2251 DEB, 34965 is space debris in LEO originally from a launch on Wed, 16 Jun 1993 UTC launched from the Plesetsk Missile And Space Complex (PKMTR). The debris from Iridium 33, an American commercial communications satellite, has been tracked extensively since its accidental collision with the defunct Russian satellite Cosmos 2251 in 2009. This event, occurring at high speed in low Earth orbit (LEO), generated thousands of pieces of space debris, significantly increasing the risk of further collisions. The Iridium 33 debris cloud has impacted space traffic management and orbital debris mitigation strategies, making it a subject of ongoing study in space situational awareness.

Loading next visibility...
Identifier
34965, 1993-036AEU
Orbit
LEO
Country
Flag of CISCIS
Related business
Manufacturer
Unknown
Mission
Spacecraft
Bus & Motor
Unknown
Mass
Unknown
Launch date (UTC)
1993-06-16 (32 years ago)
Launch vehicle
Unknown
Launch site
Plesetsk Missile And Space Complex (PKMTR)
Object type
Payload
Rocket body
Debris
Shape & HBR
Unknown shape, 0.1 m
Radar Cross Section
Small (<0.1 m²)

Expand to show TLE details & history
Last TLE update: 18 hours ago

TLE from 18 hours ago
0 COSMOS 2251 DEB
1 34965U 93036AEU 25304.46070345  .00001518  00000-0  40968-3 0  9996
2 34965  74.0524 207.6038 0025863 341.6402  18.3822 14.48557665865016
Epoch: 2025-10-31T11:03Z
TLE epoch observation values (Epoch: 2025-10-31T11:03:24.778Z)
Latitude
0.00007°
Longitude
1.74577°
Altitude
715.546 km
Speed
7.507 km/s
True Right ascension
13h 50m 24s
True Declination
0° 00' 00"
Sunlit
Object was in daylight at epoch
Visualization orbit readout
Latitude
Unknown
Longitude
Unknown
Altitude
Unknown
Speed
Unknown
Apparent Right ascension
Unknown
Apparent Declination
Unknown
Sunlit
N/A
Visualization observer readout
Local Sidereal Time
01:10:49
Azimuth
Unknown
Elevation
Unknown
Doppler factor
Unknown
Orbital elements
Apogee altitude
746.35 km
Perigee altitude
709.593 km
Semi-major axis
7,106.109 km
Eccentricity
0.00259
Inclination
74.0524°
RAAN
207.6038°
Arg. of periapsis
341.6402°
True anomaly
18.47595°
Mean anomaly
18.3822°
Eccentric anomaly
18.42905°
Mean motion
3.62323 °/min
Orbital period
99.36 mins
BSTAR
0.00040968
Loading maneuver chart data...
Computing Atmospheric mass density...

Documentation

Showing up to 5 results
|